Wind_Speed
18 18 17 17 17 17 18 19 20 19 17 16 16 16 17 17 18 16 15 7 5 9 7 12 13 11 12 10 8 6 2 4 8 7 3 2 3 4 4 6 6 10 10 10 12
15 16 16 16 16 16 16 17 17 18 18 17 15 17 17 18 20 10 5 7 6 8 9 12 14 12 8 7 7 5 5 8 4 6 3 4 6 5 3 5 7 10 15 11 14
16 18 18 18 18 18 17 16 15 16 18 17 15 16 17 18 16 3 7 1 7 10 11 8 9 12 5 5 8 4 6 10 3 11 8 5 5 7 5 4 11 14 18 14 18
18 18 19 20 19 18 17 15 14 13 15 17 16 14 15 13 4 3 6 2 5 9 10 9 10 8 5 6 9 3 10 15 4 25 8 4 4 4 11 9 4 6 11 18 21
20 20 20 21 19 18 16 13 12 11 13 13 13 13 11 6 6 6 4 2 4 8 9 8 12 7 5 5 6 4 6 8 19 27 18 12 11 9 10 13 10 11 10 15 21
22 21 21 21 19 16 15 14 12 11 11 12 11 11 7 4 4 5 3 3 4 6 9 10 5 8 5 4 6 5 9 17 21 19 10 10 15 8 15 19 21 20 18 15 20
22 22 21 20 18 15 15 15 13 11 9 7 6 7 7 8 5 5 4 3 3 4 6 8 10 7 1 3 7 8 5 7 9 9 10 9 7 12 27 26 23 20 22 20 20
23 22 22 20 17 15 14 14 11 9 5 2 3 4 4 3 5 5 5 5 5 5 3 3 11 5 4 6 4 3 1 2 4 7 6 13 17 5 19 26 29 32 32 28 26
24 22 21 19 17 15 13 11 8 7 4 0 2 2 2 2 0 1 3 2 1 4 5 3 6 4 1 2 4 3 4 3 7 8 3 6 8 10 26 28 29 31 32 37 35
25 23 22 21 17 15 12 8 5 5 4 2 1 1 1 1 2 2 1 1 1 6 6 4 3 2 1 3 5 4 4 4 6 2 2 2 15 11 12 10 24 28 32 33 33
23 19 18 17 16 19 15 3 2 1 3 2 2 3 3 1 2 1 1 2 3 3 4 1 3 8 8 6 5 1 2 5 4 2 2 6 10 15 17 14 22 30 31 29 31
23 20 17 14 11 15 12 9 10 6 8 2 4 7 7 12 6 4 4 3 3 3 3 3 7 7 6 5 6 5 5 12 8 7 5 8 10 22 18 12 25 32 34 40 46
23 21 18 11 7 11 18 17 7 3 3 6 3 3 3 1 2 1 4 3 3 4 5 5 4 4 6 4 5 5 6 7 10 3 4 5 7 11 5 14 26 29 36 37 41
23 23 19 11 4 13 11 9 5 1 4 4 2 2 3 2 1 3 4 0 1 3 4 5 3 4 4 5 7 3 8 9 5 0 4 2 6 7 7 9 6 18 25 38 40
22 22 20 13 7 14 10 5 3 3 4 4 2 3 3 1 4 3 2 1 2 1 2 5 2 3 4 6 7 7 2 5 3 4 2 2 1 6 4 5 14 10 20 29 32
22 20 14 9 8 11 4 2 1 6 5 4 5 6 5 3 2 2 1 1 2 2 4 7 3 3 6 2 5 1 2 3 3 2 1 7 7 4 4 7 7 3 7 10 17
22 17 10 12 16 8 3 2 5 5 4 7 4 6 4 4 4 4 3 2 1 4 4 5 4 3 2 2 1 3 4 3 4 3 6 3 3 6 13 17 8 9 18 17 14
20 14 7 10 14 6 2 5 4 2 4 4 4 6 3 7 3 5 2 4 5 3 2 1 7 2 2 3 4 5 5 4 5 3 4 1 6 5 8 14 19 22 20 17 17
22 5 7 10 9 5 1 4 7 5 2 6 6 6 5 4 3 6 4 6 5 7 1 2 5 1 1 2 1 3 2 3 4 2 0 4 6 7 14 4 6 12 17 16 16
22 4 14 12 9 3 5 3 2 2 4 2 0 3 4 6 6 8 2 4 7 4 3 5 5 1 3 1 1 3 1 3 2 3 5 4 4 6 10 7 8 14 16 22 19
16 3 13 14 5 6 4 2 2 3 5 3 2 3 2 2 3 3 3 3 5 8 7 7 2 4 1 4 6 2 2 2 2 3 4 2 5 6 5 5 6 5 16 21 22
11 3 14 15 6 3 2 1 3 3 5 4 2 3 3 3 2 3 2 2 10 8 3 3 5 5 8 4 2 3 6 7 4 5 5 2 9 7 5 4 5 4 12 20 25
7 5 11 9 4 3 4 1 1 3 3 2 2 3 2 1 3 2 2 3 8 8 6 5 4 5 8 5 6 5 4 6 4 1 19 4 8 3 5 4 6 11 27 32 32
4 3 5 11 8 6 2 3 3 3 3 2 2 2 2 0 2 4 2 0 3 9 9 2 3 5 7 5 2 9 14 14 7 3 5 21 24 13 20 23 25 31 28 35 38
2 1 2 2 2 3 3 6 3 2 2 2 2 6 5 1 3 5 2 3 5 5 2 3 3 3 7 6 9 15 19 18 16 11 10 25 17 9 14 13 22 28 34 34 40
2 2 3 3 2 4 5 4 8 5 5 5 6 11 5 8 9 5 4 2 3 3 1 0 4 1 9 11 13 15 13 11 19 15 21 20 30 17 30 32 30 33 37 25 32
2 3 4 6 4 4 6 7 9 10 10 19 12 4 8 16 17 25 21 17 10 7 6 3 3 2 6 5 6 8 9 19 13 15 18 18 23 13 16 19 27 33 31 34 42
Wind_Direction
334 337 333 322 313 308 297 290 284 283 292 300 310 320 328 332 328 314 299 268 250 216 202 187 194 189 186 191 189 182 185 211 228 205 219 159 232 213 227 224 215 211 217 209 203
346 342 335 329 324 319 307 298 286 273 276 286 295 311 324 328 327 326 319 252 222 199 196 184 188 185 179 192 195 184 213 223 207 188 215 249 211 238 221 218 236 234 227 222 203
338 336 336 330 325 318 314 302 291 278 274 276 283 299 318 325 326 349 6 45 192 183 181 187 188 192 184 189 200 219 228 233 229 222 230 233 242 232 204 234 231 227 225 219 197
348 342 341 338 335 328 322 313 301 285 273 274 274 289 309 319 302 339 341 358 189 188 192 187 181 172 183 200 212 230 239 241 251 248 249 222 237 233 211 233 236 240 237 226 209
351 347 343 338 332 329 325 317 307 294 274 269 266 282 305 294 270 302 307 288 214 203 202 196 184 180 186 210 209 235 241 262 251 252 256 253 244 237 234 244 263 269 256 234 222
350 347 342 340 339 335 328 326 317 305 285 269 261 268 284 251 259 282 266 256 235 222 221 209 213 214 237 228 177 232 246 256 255 261 253 235 256 223 247 265 261 251 256 245 231
348 348 348 348 348 343 335 332 333 322 305 272 254 254 262 270 257 270 265 262 253 227 223 219 209 197 293 269 272 273 285 293 243 246 239 256 270 221 249 250 246 243 240 235 235
351 352 351 354 354 344 338 334 345 344 331 254 237 242 258 269 277 259 248 262 264 250 221 224 206 224 235 299 314 251 218 294 299 211 232 185 258 239 245 231 240 246 244 239 239
353 354 354 355 356 350 344 339 0 5 5 1 207 212 277 330 31 221 202 230 238 192 163 145 166 205 245 133 339 339 251 235 300 206 138 177 254 240 250 238 242 247 248 247 240
353 356 354 354 355 1 354 339 357 24 42 67 184 272 248 8 88 74 107 117 123 149 149 161 148 98 85 133 228 230 235 252 248 347 86 154 259 264 268 244 249 256 255 250 246
352 357 352 352 349 357 12 356 353 285 6 274 273 290 295 2 291 261 157 151 146 159 158 84 112 216 207 197 221 267 244 272 258 279 235 241 259 272 270 239 256 255 251 247 247
353 358 357 354 10 7 359 70 57 333 321 3 301 285 284 272 269 247 223 210 172 193 119 51 233 222 179 192 219 244 264 268 281 251 184 274 263 279 264 238 242 245 242 248 250
355 357 5 357 23 11 42 58 38 350 272 308 318 321 339 320 248 332 207 194 167 168 192 186 217 113 165 185 198 219 217 242 243 329 244 280 273 258 277 237 252 249 246 250 250
356 353 359 6 1 9 28 36 39 45 63 302 21 14 342 338 327 319 192 223 282 225 191 238 275 222 191 207 172 256 220 240 233 32 240 81 290 287 278 270 254 257 248 244 243
356 351 354 13 16 13 355 27 61 332 21 297 1 352 330 309 322 14 222 211 240 238 134 259 206 202 212 224 162 228 163 193 193 192 3 236 276 266 272 284 278 253 251 249 242
357 355 360 4 17 358 12 70 37 42 253 344 340 357 14 10 5 339 21 246 272 280 219 244 281 233 213 170 192 133 109 57 53 90 324 229 194 273 241 226 281 331 335 294 261
360 357 4 11 353 8 43 146 39 127 328 320 337 357 336 316 349 18 5 333 242 358 334 314 229 284 175 142 63 195 86 335 334 357 234 336 261 262 273 270 262 290 296 295 311
1 349 2 2 357 10 63 56 98 261 260 325 326 312 352 8 11 335 357 349 29 32 308 211 329 191 332 224 196 193 171 172 244 248 293 9 244 244 238 271 292 295 293 293 290
357 1 8 358 352 10 338 64 192 201 301 336 315 52 338 1 17 357 56 4 32 12 145 301 266 287 56 350 42 255 181 192 105 119 340 239 293 285 275 305 3 5 355 323 312
356 41 10 3 353 6 69 140 133 358 336 13 17 127 356 339 26 5 23 343 330 358 322 308 303 357 319 186 71 162 291 67 8 276 272 286 278 238 287 351 2 359 354 4 359
357 23 4 359 22 55 101 206 27 353 2 12 338 335 37 0 338 315 335 30 3 329 14 358 202 286 315 207 195 52 341 34 160 168 220 298 261 214 240 285 334 352 11 18 16
4 17 357 354 47 42 88 11 346 349 4 5 18 9 25 15 320 255 333 85 359 355 15 329 299 263 237 282 264 190 206 174 167 253 230 190 259 272 280 299 288 285 350 1 351
359 332 3 15 93 358 320 341 13 31 17 22 30 63 127 215 355 276 332 216 55 35 355 340 319 324 331 5 11 26 354 4 321 286 247 239 258 322 283 255 296 325 333 329 330
1 15 23 57 88 119 123 318 343 305 261 234 250 234 133 308 219 253 269 7 17 337 307 263 253 217 269 315 307 290 304 307 298 275 277 246 263 303 307 311 311 308 313 315 315
29 259 113 287 314 133 161 176 230 279 276 240 299 228 179 234 285 234 266 322 337 339 71 106 234 239 268 284 276 271 275 279 259 260 259 277 292 296 295 299 296 301 301 301 306
248 187 200 257 201 148 207 225 209 247 173 236 202 252 156 209 202 218 144 195 208 316 134 324 265 259 284 267 260 267 271 270 275 268 262 273 273 266 268 274 278 281 286 288 293
234 279 260 212 182 155 202 207 219 220 232 241 246 174 233 248 244 258 249 255 224 182 207 182 184 73 264 307 337 309 253 235 236 243 261 273 291 309 287 277 276 280 284 291 293
Height
1507 1505 1503 1501 1498 1496 1495 1494 1493 1493 1494 1494 1493 1491 1490 1487 1484 1481 1480 1480 1480 1481 1483 1484 1487 1489 1491 1493 1495 1495 1499 1499 1491 1492 1489 1488 1490 1488 1487 1487 1486 1486 1485 1486 1487
1505 1501 1500 1498 1494 1492 1491 1490 1489 1488 1490 1490 1490 1489 1487 1484 1482 1479 1479 1477 1478 1480 1482 1482 1486 1488 1490 1492 1494 1493 1495 1489 1483 1484 1486 1486 1486 1486 1486 1485 1484 1482 1483 1483 1484
1501 1500 1496 1493 1491 1488 1487 1486 1485 1485 1485 1486 1486 1486 1485 1483 1481 1478 1477 1476 1477 1479 1482 1483 1485 1488 1489 1490 1490 1488 1488 1483 1481 1481 1483 1483 1483 1483 1483 1484 1480 1479 1480 1481 1482
1502 1496 1493 1490 1487 1485 1483 1482 1481 1480 1481 1481 1482 1482 1482 1482 1484 1477 1477 1477 1478 1479 1481 1482 1484 1486 1487 1488 1486 1488 1482 1481 1479 1480 1481 1482 1481 1479 1479 1478 1478 1478 1478 1479 1479
1500 1495 1491 1488 1485 1482 1480 1479 1478 1477 1477 1477 1478 1479 1480 1480 1479 1477 1476 1477 1478 1479 1481 1482 1483 1485 1486 1484 1484 1485 1479 1479 1478 1478 1478 1478 1478 1478 1475 1475 1476 1476 1476 1476 1477
1498 1492 1490 1487 1483 1480 1478 1476 1475 1474 1473 1474 1475 1476 1478 1480 1475 1475 1476 1476 1477 1477 1479 1480 1482 1484 1484 1482 1482 1478 1477 1475 1476 1474 1474 1475 1473 1476 1470 1472 1471 1473 1473 1474 1474
1495 1492 1489 1485 1481 1478 1476 1474 1473 1472 1471 1471 1473 1474 1475 1475 1474 1474 1474 1475 1475 1476 1477 1478 1481 1483 1482 1481 1479 1477 1478 1474 1470 1469 1470 1471 1471 1468 1464 1467 1466 1466 1468 1470 1471
1495 1491 1487 1483 1480 1477 1475 1473 1471 1471 1470 1470 1472 1473 1473 1472 1472 1472 1473 1474 1474 1475 1476 1477 1479 1481 1481 1480 1478 1477 1476 1477 1465 1463 1464 1469 1463 1459 1458 1460 1459 1460 1462 1464 1466
1494 1491 1487 1483 1479 1476 1473 1471 1470 1470 1470 1470 1472 1473 1472 1472 1471 1471 1472 1473 1473 1474 1475 1477 1478 1480 1480 1482 1486 1481 1481 1477 1470 1460 1462 1466 1464 1452 1451 1453 1452 1452 1452 1455 1458
1493 1489 1486 1482 1479 1476 1472 1470 1469 1470 1470 1471 1472 1475 1472 1472 1472 1472 1472 1472 1473 1473 1475 1476 1477 1480 1481 1483 1484 1481 1479 1476 1472 1464 1465 1468 1460 1451 1450 1450 1447 1447 1447 1447 1448
1493 1488 1486 1482 1478 1475 1473 1470 1473 1472 1470 1470 1472 1473 1472 1472 1472 1472 1471 1472 1472 1473 1475 1476 1480 1478 1474 1476 1475 1475 1476 1476 1469 1463 1465 1464 1462 1449 1446 1447 1443 1440 1439 1438 1438
1493 1489 1486 1482 1479 1476 1474 1470 1478 1480 1475 1470 1470 1470 1471 1471 1472 1471 1472 1473 1472 1474 1474 1479 1478 1469 1469 1472 1475 1476 1476 1473 1467 1462 1465 1461 1457 1440 1438 1437 1432 1428 1427 1427 1428
1492 1488 1485 1482 1479 1479 1475 1477 1479 1478 1479 1471 1471 1470 1471 1472 1470 1470 1471 1471 1471 1473 1475 1476 1466 1465 1469 1471 1473 1473 1474 1469 1468 1463 1462 1459 1449 1434 1423 1422 1418 1417 1416 1416 1416
1492 1487 1484 1482 1482 1479 1479 1479 1478 1479 1486 1475 1472 1472 1472 1471 1471 1471 1471 1473 1471 1471 1472 1472 1465 1465 1467 1466 1469 1470 1462 1462 1465 1468 1472 1458 1463 1434 1421 1419 1413 1407 1406 1403 1405
1490 1488 1484 1481 1481 1479 1481 1479 1479 1480 1511 1477 1473 1473 1472 1473 1473 1471 1471 1471 1471 1470 1473 1465 1462 1464 1465 1461 1462 1461 1456 1460 1461 1467 1466 1462 1471 1430 1422 1416 1404 1395 1394 1395 1396
1490 1486 1484 1483 1480 1480 1478 1479 1480 1496 1506 1482 1477 1476 1474 1472 1472 1472 1471 1472 1470 1469 1468 1467 1462 1461 1458 1456 1458 1457 1457 1460 1468 1469 1494 1457 1454 1438 1419 1406 1396 1392 1393 1393 1393
1490 1486 1483 1482 1481 1479 1477 1479 1497 1507 1491 1493 1486 1481 1481 1476 1473 1473 1473 1473 1474 1480 1472 1464 1460 1456 1455 1456 1458 1458 1460 1486 1485 1500 1467 1458 1457 1433 1410 1398 1398 1396 1394 1392 1392
1488 1485 1484 1483 1481 1479 1478 1482 1512 1525 1514 1490 1485 1482 1481 1482 1477 1476 1475 1478 1476 1477 1482 1481 1473 1457 1456 1455 1455 1459 1459 1469 1468 1486 1474 1456 1453 1415 1405 1396 1395 1393 1390 1388 1388
1488 1485 1485 1483 1481 1479 1481 1509 1512 1509 1495 1494 1487 1495 1494 1486 1487 1479 1479 1492 1486 1483 1490 1480 1465 1456 1456 1456 1457 1462 1467 1454 1473 1503 1483 1448 1428 1414 1395 1394 1395 1393 1390 1388 1388
1487 1484 1485 1483 1480 1479 1484 1501 1500 1495 1496 1493 1495 1499 1496 1496 1490 1488 1483 1496 1490 1489 1487 1479 1481 1459 1458 1456 1457 1458 1458 1470 1475 1482 1487 1453 1445 1420 1398 1396 1398 1396 1393 1389 1388
1487 1484 1485 1483 1480 1481 1505 1510 1499 1498 1496 1497 1496 1499 1495 1501 1494 1493 1489 1497 1492 1489 1485 1483 1477 1464 1458 1458 1456 1467 1469 1467 1464 1466 1474 1477 1432 1411 1402 1403 1402 1399 1398 1393 1391
1489 1489 1486 1483 1485 1496 1508 1502 1499 1499 1497 1497 1498 1498 1498 1500 1503 1491 1487 1492 1492 1491 1494 1489 1481 1473 1463 1454 1453 1454 1454 1455 1463 1467 1460 1465 1418 1399 1397 1401 1399 1396 1395 1394 1393
1492 1491 1489 1483 1502 1511 1504 1501 1501 1498 1497 1497 1497 1498 1501 1505 1512 1501 1493 1493 1493 1492 1494 1490 1495 1491 1468 1463 1460 1461 1457 1460 1465 1459 1433 1459 1416 1400 1399 1401 1399 1397 1395 1395 1394
1494 1497 1492 1489 1496 1499 1507 1505 1501 1498 1498 1498 1498 1498 1500 1506 1502 1506 1495 1492 1492 1492 1490 1490 1492 1492 1479 1476 1481 1472 1467 1466 1471 1474 1457 1419 1407 1414 1408 1403 1394 1397 1396 1393 1390
1494 1495 1495 1502 1497 1497 1499 1500 1500 1503 1498 1497 1497 1496 1499 1512 1509 1505 1497 1494 1491 1491 1490 1492 1507 1495 1484 1480 1478 1472 1466 1460 1461 1459 1450 1406 1427 1430 1420 1413 1402 1396 1393 1390 1386
1493 1494 1495 1494 1495 1496 1497 1501 1496 1497 1498 1495 1496 1490 1496 1501 1494 1504 1499 1500 1494 1493 1492 1492 1498 1488 1486 1476 1470 1466 1459 1458 1450 1450 1438 1432 1408 1418 1410 1405 1398 1392 1386 1384 1382
1492 1492 1492 1490 1492 1495 1494 1491 1489 1489 1490 1487 1487 1490 1490 1483 1486 1484 1485 1485 1486 1489 1492 1494 1499 1510 1502 1474 1475 1483 1452 1442 1441 1438 1428 1426 1410 1408 1403 1399 1392 1386 1383 1378 1374